Retour au catalogue

DELTA 1 DEB

ActifSSO
NORAD 7166·DEBRIS·🇺🇸 United States

Lancé Nov 6, 1973 depuis Vandenberg Space Force Base

Loading…

Prochains Passages (prochaines 24 heures)

TLE

FraisSource: Space-Track

Époque: Sep 13, 2026, 23:20 UTC

1 07166U 73086EE  26256.97277437  .00000023  00000-0  50651-3 0  9996
2 07166 102.2438 263.8671 0014743  99.4886 319.3000 12.41505634391637

Suivez DELTA 1 DEB en temps réel avec AllMySat

Download on the App Store